Overview Statistics Trail Chart Weather Telemetry Raw packets
 

This is the latest recevied weather packets stored in our database for station/object K6POO-1. If no packets are shown the sender has not sent any weather packets the latest 10 day(s).

<< 70 71 72 73 74 75 76 >>
Time Temp. Humidity Pressure Rain* Wind** Luminosity Snow
1788189462 14.44° C 89% 1014 hPa 0 mm - 32 W/m² -
1788189161 14.44° C 89% 1014.1 hPa 0 mm - 36 W/m² -
1788188856 14.44° C 89% 1014 hPa 0 mm - 30 W/m² -
1788188552 14.44° C 89% 1014.1 hPa 0 mm - 33 W/m² -
1788188251 14.44° C 89% 1014.1 hPa 0 mm - 28 W/m² -
1788187947 14.44° C 89% 1014.2 hPa 0 mm - 25 W/m² -
1788187642 14.44° C 89% 1013.8 hPa 0 mm - 24 W/m² -
1788187339 14.44° C 89% 1014 hPa 0 mm - 22 W/m² -
1788187038 13.89° C 89% 1013.9 hPa 0 mm - 20 W/m² -
1788186734 13.89° C 88% 1013.9 hPa 0 mm - 18 W/m² -
1788186429 14.44° C 88% 1014 hPa 0 mm - 14 W/m² -
1788186125 13.89° C 88% 1013.7 hPa 0 mm - 9 W/m² -
1788185823 13.89° C 88% 1013.6 hPa 0 mm - 8 W/m² -
1788185519 13.89° C 88% 1013.6 hPa 0 mm - 7 W/m² -
1788185218 14.44° C 88% 1013.5 hPa 0 mm - 5 W/m² -
1788184913 14.44° C 88% 1013.4 hPa 0 mm - 4 W/m² -
1788184611 13.89° C 88% 1013.4 hPa 0 mm - 3 W/m² -
1788184307 13.89° C 88% 1013.5 hPa 0 mm - 3 W/m² -
1788184007 13.89° C 88% 1013.4 hPa 0 mm - 2 W/m² -
1788183698 13.89° C 88% 1013.1 hPa 0 mm - 1 W/m² -
1788183397 13.89° C 88% 1013.2 hPa 0 mm - 1 W/m² -
1788183092 13.89° C 87% 1013.3 hPa 0 mm - 0 W/m² -
1788182788 13.89° C 87% 1013.2 hPa 0 mm - 0 W/m² -
1788182487 13.89° C 87% 1013.1 hPa 0 mm - 0 W/m² -
1788182182 13.89° C 87% 1013.2 hPa 0 mm - 0 W/m² -

* Rain latest hour (hover to see other rain measurements)
** Current wind speed in m/s (hover to see current wind gust speed)